Location: Gajan
(43.0218°N, 1.1244°E)
Time: 01:58:07
(UTC+00:00)

ERS-2 - Pass Details

Date: 22 April 2021
Orbit: 491 x 497 km, 98.6° (Epoch: 15 May)

Event Time Altitude Azimuth Distance (km) Brightness Sun altitude
Rises 19:18:37 0° 13° (NNE) 2,586 5.9 -6.3°
Reaches altitude 10° 19:20:42 10° 14° (NNE) 1,697 5.0 -6.7°
Maximum altitude 19:24:21 89° 307° (NW) 499 2.1 -7.3°
Drops below altitude 10° 19:27:58 10° 195° (SSW) 1,679 4.7 -7.9°
Sets 19:30:01 0° 195° (SSW) 2,555 5.6 -8.2°
